Flight Information

DEPARTURE
GRAND CANYON, AZ
Elevation:
6608
Runways:
3/21 - 8999x150 - ASPH-G
ATIS:
124.3
Ground:
121.9
Tower:
CANYON TOWER 119.0
DESTINATION
,
Elevation:
TPA:
1000 (est.)


6465.9 NM77° True-14° Var62° HDG

Flight Plan:
(click to file on line)

1. Type
2. Aircraft Identification
3. Aircraft Type / Special Equipment
4. True Airspeed
kts
5. Departure Airport
(ICAO code)
6. Arriving Airport
(ICAO code)
7. Cruising Altitude
ft
8. Alternate Airport
(ICAO code)
9. Route of Flight
10. Remarks


00:00:00 Departure ATIS: Destination ATIS:

Clearance Limit:
Route:
Altitude: Expect in minutes
Frequency:
Transponder: (7500 Hijack / 7600 Lost Comms / 7700 Emergency)


KGCN 282254Z 05016G24KT 10SM CLR 04/M13 A3044 RMK AO2 SLP305 T00391128
Time: 2022-01-28T22:54:00Z
1643411961
Winds: 50 @ 16 kts
Gusting:24 kts
Visibility: 10.0 sm
Clouds (AGL): CLR
Temperature: 3.9 C
Dew Point: -12.8 C
Pressure: 30.43996 in Hgbr


Notes:

Data extracted from FAA Digital Chart Supplement. Effective: 0901Z Thursday, DEC 2, 2021 to 0901Z Thursday, JAN 27, 2022
Current ATIS data is provided courtisy of PilotEdge.